Burley, ID

7:26 PM MST on February 24, 2018 (GMT -0700)
Burley Municipal

Weather History for KBYI - September, 2013

Change the Weather History Date:

Sunday, September 15, 2013

  Actual Average Record
Temperature  
Mean Temperature 66 °F 59 °F  
Max Temperature 81 °F 75 °F 95 °F (2000)
Min Temperature 51 °F 43 °F 32 °F (1952)
Degree Days  
Heating Degree Days 0 7  
Month to date heating degree days 2 71  
Since 1 July heating degree days 2 128  
Cooling Degree Days 1 1  
Month to date cooling degree days 48 18  
Year to date cooling degree days 636 362  
Growing Degree Days 15 (Base 50)    
Moisture  
Dew Point 52 °F    
Average Humidity 64    
Maximum Humidity 89    
Minimum Humidity 39    
Precipitation  
Precipitation 0.00 in 0.02 in 0.25 in (1996)
Month to date precipitation 1.02 0.25  
Year to date precipitation 3.72 7.01  
Sea Level Pressure  
Sea Level Pressure 29.88 in    
Wind  
Wind Speed 4 mph (ESE)    
Max Wind Speed 17 mph    
Max Gust Speed 22 mph    
Visibility 10 miles    
Events      
T = Trace of Precipitation, MM = Missing Value Source: NWS Daily Summary

Daily Weather History Graph

Daily Weather History Graph

Search for Another Location

Airport or City:

Trip Planner

Search our weather history database for the weather conditions in past years. The results will help you decide how hot, cold, wet, or windy it might be!

Date:

Astronomy

Sep. 15, 2013 Rise Set
Actual Time 7:15 AM MDT 7:44 PM MDT
Civil Twilight 6:46 AM MDT 8:12 PM MDT
Nautical Twilight 6:13 AM MDT 8:45 PM MDT
Astronomical Twilight 5:39 AM MDT 9:19 PM MDT
Moon 5:18 PM MDT (9/15) 2:53 AM MDT (9/15)
Length of Visible Light 13h 25m
Length of Day
12h 28m
Waxing Gibbous, 82% of the Moon is Illuminated
Sep 15
Waxing Gibbous
Sep 19
Full
Sep 26
Last Quarter
Oct 4
New
Oct 11
First Quarter

Hourly Weather History & Observations

Time (MDT) Temp. Dew Point Humidity Pressure Visibility Wind Dir Wind Speed Gust Speed Precip Events Conditions
12:53 AM 59.0 °F 50.0 °F 72% 29.88 in 10.0 mi Calm Calm - N/A   Clear
1:53 AM 55.9 °F 51.1 °F 84% 29.88 in 10.0 mi SE 3.5 mph - N/A   Clear
2:53 AM 54.0 °F 50.0 °F 86% 29.88 in 10.0 mi Calm Calm - N/A   Clear
3:53 AM 54.0 °F 48.9 °F 83% 29.88 in 10.0 mi North 4.6 mph - N/A   Clear
4:53 AM 53.1 °F 50.0 °F 89% 29.91 in 10.0 mi NE 3.5 mph - N/A   Clear
5:53 AM 51.1 °F 48.9 °F 92% 29.91 in 10.0 mi Calm Calm - N/A   Clear
6:53 AM 52.0 °F 48.9 °F 89% 29.92 in 10.0 mi NE 4.6 mph - N/A   Mostly Cloudy
7:53 AM 53.1 °F 50.0 °F 89% 29.93 in 10.0 mi East 3.5 mph - N/A   Clear
8:53 AM 57.9 °F 52.0 °F 81% 29.93 in 10.0 mi ENE 8.1 mph - N/A   Clear
9:53 AM 62.1 °F 53.1 °F 72% 29.94 in 10.0 mi Calm Calm - N/A   Clear
10:53 AM 66.9 °F 54.0 °F 63% 29.93 in 10.0 mi ENE 4.6 mph - N/A   Clear
11:53 AM 73.0 °F 51.1 °F 46% 29.91 in 10.0 mi Calm Calm - N/A   Clear
12:53 PM 75.0 °F 53.1 °F 46% 29.90 in 10.0 mi Calm Calm - N/A   Clear
1:53 PM 77.0 °F 52.0 °F 42% 29.89 in 10.0 mi SSE 4.6 mph - N/A   Clear
2:53 PM 79.0 °F 54.0 °F 42% 29.87 in 10.0 mi SE 4.6 mph - N/A   Clear
3:53 PM 79.0 °F 52.0 °F 39% 29.85 in 10.0 mi South 4.6 mph - N/A   Clear
4:53 PM 79.0 °F 53.1 °F 40% 29.84 in 10.0 mi Variable 4.6 mph - N/A   Clear
5:53 PM 79.0 °F 52.0 °F 39% 29.83 in 10.0 mi Calm Calm - N/A   Clear
6:53 PM 78.1 °F 54.0 °F 43% 29.83 in 10.0 mi Calm Calm - N/A   Clear
7:53 PM 71.1 °F 55.0 °F 57% 29.84 in 10.0 mi ESE 3.5 mph - N/A   Clear
8:53 PM 69.1 °F 54.0 °F 58% 29.84 in 10.0 mi SE 4.6 mph - N/A   Clear
9:53 PM 66.0 °F 55.0 °F 68% 29.85 in 10.0 mi SE 5.8 mph - N/A   Clear
10:53 PM 64.9 °F 55.0 °F 70% 29.84 in 10.0 mi SE 4.6 mph - N/A   Clear
11:53 PM 63.0 °F 53.1 °F 70% 29.83 in 10.0 mi South 8.1 mph - N/A   Clear